Regional Weather Roundup
Issued by NWS

Home | Current Version | Previous Version | Text Only | Print | Product List | Glossary On
Versions: 1 2 3 4 5 6 7 8 9 10 11 12 13 14 15 16 17 18 19 20 21 22 23 24 25 26 27 28 29 30 31 32 33 34 35 36 37 38 39 40 41 42 43 44 45 46 47 48 49 50
000
ASUS43 KMPX 261310
RWRMN
WEATHER ROUNDUP FOR MINNESOTA
NATIONAL WEATHER SERVICE TWIN CITIES/CHANHASSEN MN
800 AM CDT THU MAY 26 2016


NOTE: "FAIR" INDICATES FEW OR NO CLOUDS BELOW 12,000 FEET WITH NO
SIGNIFICANT WEATHER AND/OR OBSTRUCTIONS TO VISIBILITY. N/A MEANS
CURRENT SKY AND/OR WEATHER CONDITIONS ARE NOT AVAILABLE.

MNZ060>063-068>070-261400-
   Twin Cities Metro

CITY           SKY/WX    TMP DP  RH WIND       PRES   REMARKS
TWIN CITIES    CLOUDY    63  57  81 SW9       29.81R
ST PAUL        CLOUDY    63  57  81 SW7       29.81R
CRYSTAL        CLOUDY    65  54  67 SW10      29.80R
BLAINE         CLOUDY    66  59  77 SW6       29.80R
EDEN PRAIRIE   CLOUDY    62  57  83 SW7       29.80R
SOUTH ST PAUL  CLOUDY    63  59  87 SW6       29.81R
LAKE ELMO      FAIR      63  59  88 SW3       29.82R
$$
MNZ001>005-007-008-013>017-022>024-027-028-261400-
   Northwest Minnesota

CITY           SKY/WX    TMP DP  RH WIND       PRES   REMARKS
BEMIDJI        CLOUDY    56  56  97 W6        29.75R
HALLOCK        CLOUDY    59  55  88 SW13      29.67R
ROSEAU         CLOUDY    59  54  82 SW9       29.69F
WARROAD        CLOUDY    59  55  88 SW8       29.71S
THIEF RVR FALL CLOUDY    57  54  88 SW8       29.75R
CROOKSTON      MOSUNNY   59  57  94 W7        29.74S
FOSSTON        MOSUNNY   57  55  94 SW7       29.76R
DETROIT LAKES  SUNNY     59  54  82 SW6       29.78S
MOORHEAD       SUNNY     55  54  94 SW5       29.76F
PARK RAPIDS    CLOUDY    59  56  89 W7        29.77R
MAHNOMEN       FAIR      55  54  94 SW10      29.76R
$$
MNZ006-009>011-018-025>026-261400-
   North Central Minnesota

CITY           SKY/WX    TMP DP  RH WIND       PRES   REMARKS
BAUDETTE       CLOUDY    56  53  90 SE6       29.73R
FLAG ISLAND    CLOUDY    55  55 100 S18       29.70S
INTL FALLS     CLOUDY    55  54  96 SE5       29.76F FOG
WASKISH        CLOUDY    57  55  94 S5        29.75R
BIG FORK       CLOUDY    57  55  94 S5        29.77S FOG
LONGVILLE      CLOUDY    57  55  94 SE5       29.77R FOG
GRAND RAPIDS   CLOUDY    52  51  97 E7        29.80S FOG
CRANE LAKE     CLOUDY    55  54  94 CALM      29.80S
ORR            CLOUDY    55  52  88 SE5       29.76S
COOK           CLOUDY    55  54  94 SE5       29.79R
WALKER         CLOUDY    59  56  91 S5        29.76R
$$
MNZ012-019>021-037-261400-
   Northeast Minnesota

CITY           SKY/WX    TMP DP  RH WIND       PRES   REMARKS
DULUTH         FOG       47  46  97 E3        29.80F VSB 1/8
ELY            CLOUDY    55  54  94 SE7       29.79F
HIBBING        FOG       50  50 100 S5        29.79S VSB 1/2
EVELETH        CLOUDY    52  52 100 S3        29.81R
DULUTH HARBOR  FOG       43  43 100 NE9       29.82F VSB 1/2
TWO HARBORS    HAZE      52  46  82 E5        29.80S VSB 1/4
SILVER BAY     CLOUDY    52  50  93 NE6       29.81R VSB 1/2
GRAND MARAIS     N/A     47  43  86 NE8       29.82F
G MARAIS ARPRT CLOUDY    55  50  82 E5        29.84S
$$
MNZ029>031-032-039>041-046>048-054>057-064-261400-
   West Central Minnesota

CITY           SKY/WX    TMP DP  RH WIND       PRES   REMARKS
FERGUS FALLS   SUNNY     57  55  94 W9        29.76S
WHEATON        SUNNY     61  55  82 W6        29.82R
MORRIS         SUNNY     63  55  77 W6        29.80R
ALEXANDRIA     MOSUNNY   60  54  80 W8        29.81S
ELBOW LAKE     FAIR      56  55  97 SW8       29.81R
WADENA         CLOUDY    57  57 100 W6        29.77R
GLENWOOD       MOSUNNY   61  55  82 W10       29.81R
APPLETON       SUNNY     61  54  77 W7        29.81S
BENSON         SUNNY     61  54  77 W5        29.82
ORTONVILLE     SUNNY     61  52  72 W9        29.82R
MADISON        SUNNY     61  54  77 W9        29.83R
WILLMAR        FAIR      63  55  77 W10       29.82R
$$
MNZ033>034-036-042>043-049>051-058-059-261400-
   Central Minnesota

CITY           SKY/WX    TMP DP  RH WIND       PRES   REMARKS
ST CLOUD       CLOUDY    61  59  93 S3        29.78S
SAUK CENTRE    FAIR      58  54  84 W7        29.80R
PAYNESVILLE    CLOUDY    60  57  87 W7        29.80R
AITKIN         HAZE      57  52  82 CALM      29.78R VSB 1/4
PINE RIVER     CLOUDY    61  61 100 S6        29.80S
BRAINERD       MOSUNNY   61  59  93 SW8       29.78S
STAPLES        MOSUNNY   57  55  94 SW6       29.78R
LONG PRAIRIE   FAIR      59  54  82 SW7       29.80R
LITTLE FALLS   CLOUDY    61  55  82 W3        29.78S
LITCHFIELD     LGT RAIN  64  59  82 SW5       29.80S
BUFFALO        CLOUDY    63  57  82 S6        29.81R
MAPLE LAKE     MOSUNNY   64  60  87 CALM      29.81R
HUTCHINSON     MOSUNNY   63  58  82 SW3       29.82S
$$
MNZ037-044-045-052-053-261400-
   East Central Minnesota

CITY           SKY/WX    TMP DP  RH WIND       PRES   REMARKS
PRINCETON      PTSUNNY   63  63 100 S3        29.79S
MORA           CLOUDY    57  55  94 CALM      29.80F FOG
CAMBRIDGE      MOSUNNY   64  57  77 S5        29.77S
RUSH CITY      FOG       59  58  97 CALM      29.79S VSB 3/4
MOOSE LAKE     FOG       46  45  93 CALM      29.79S VSB 3/4
HINCKLEY       FOG       54  54 100 CALM      29.80R VSB 1/2
CLOQUET        FOG       46  45  93 CALM      29.81R VSB 1/4
MCGREGOR       CLOUDY    50  50 100 S3        29.80R VSB 1/2
$$
MNZ071>073-080-081-089-090-097-098-261400-
   Southwest Minnesota

CITY           SKY/WX    TMP DP  RH WIND       PRES   REMARKS
MONTEVIDEO     SUNNY     64  54  68 NW6       29.83S
GRANITE FALLS  SUNNY     65  56  72 W13       29.84S
CANBY          SUNNY     62  56  79 NW7       29.85S
MARSHALL       SUNNY     62  53  72 NW9       29.85R
REDWOOD FALLS  SUNNY     64  54  69 W10       29.81S
OLIVIA         CLOUDY    59  54  82 W8        29.81S
PIPESTONE      SUNNY     61  50  67 NW8       29.86S
WINDOM         SUNNY     63  57  82 CALM      29.85F
WORTHINGTON    SUNNY     61  56  83 W5        29.87S
JACKSON        SUNNY     63  55  77 W7        29.86S
TRACY          SUNNY     63  53  70 W7        29.86R
SLAYTON        SUNNY     60  52  73 NW10      29.87R
$$
MNZ065>067-074>077-082>085-091>093-261400-
   South Central Minnesota

CITY           SKY/WX    TMP DP  RH WIND       PRES   REMARKS
MANKATO        CLOUDY    63  55  77 SW9       29.83R
NEW ULM        MOSUNNY   63  57  82 W10       29.82R
ST JAMES       SUNNY     59  54  82 SW10      29.84F
FAIRMONT       SUNNY     63  48  59 S8        29.84F
GLENCOE        CLOUDY    63  59  88 SW6       29.80S
FARIBAULT      CLOUDY    61  59  94 S7        29.84R
OWATONNA       CLOUDY    63  57  82 SW7       29.85R
WASECA         PTSUNNY   63  55  77 S10       29.86R
ALBERT LEA     CLOUDY    61  57  88 SW5       29.85S
$$
MNZ078>079-086>088-094>096-261400-
   Southeast Minnesota

CITY           SKY/WX    TMP DP  RH WIND       PRES   REMARKS
ROCHESTER      CLOUDY    59  58  96 SW13      29.86R
RED WING       PTSUNNY   61  59  94 W3        29.81R
STANTON        PTSUNNY   62  57  84 SW5       29.81R
DODGE CENTER   CLOUDY    57  57 100 SW13      29.85R
WINONA         CLOUDY    61  59  94 CALM      29.81R
AUSTIN         CLOUDY    59  55  88 SW6       29.85S
PRESTON        PTSUNNY   58  56  93 SW9       29.85R
$$
ABBREVIATIONS USED IN REMARKS
   TC - TEMPERATURES IN CELSIUS
  WCI - WIND CHILL INDEX
   HX - HEAT INDEX
  VSB - VISIBILITY
$$




USA.gov is the U.S. government's official web portal to all federal, state and local government web resources and services.